TJS-2

Last updated on Thu Nov 21 2024 00:02:43 GMT+0000 (Coordinated Universal Time)

1 41911U 17001A 24325.09410675 -.00000005 00000+0 00000+0 0 9997 2 41911 0.1958 92.4689 0002137 204.2264 223.2718 1.00271384 28979
UTC large
Height (km)
Speed (km/s)
/
Latitude / Longitude
Inclination (degrees)
Orbital Period (minutes)
Azimuth
Elevation
Range (km)
Doppler Factor

Next 0 passes for location: London (51.5072 / 0.1276)

Sorry there are no passes over London.